[Iaude] MPEC T164: 2023 TZ5 [a=1.22,e=0.30,i=19.7,H=26.6]
    mpec at marsden.cfa.harvard.edu 
    mpec at marsden.cfa.harvard.edu
       
    Wed Oct 11 17:29:13 EDT 2023
    
    
  
M.P.E.C. 2023-T164                             Issued 2023 October 11, 21:27 UT
     The Minor Planet Electronic Circulars contain information on unusual
         minor planets, routine data on comets and natural satellites,
         and occasional editorial announcements.  They are published
    on behalf of Division F of the International Astronomical Union by the
          Minor Planet Center, Smithsonian Astrophysical Observatory,
                          Cambridge, MA 02138, U.S.A.
			  
             Prepared using the Tamkin Foundation Computer Network
                              MPC at CFA.HARVARD.EDU
            URL https://www.minorplanetcenter.net/    ISSN 1523-6714
                                    2023 TZ5                                    
Observations:
     K23T05Z*1C2023 10 11.27405200 43 18.960+02 40 57.40               VET164703
     K23T05Z 1C2023 10 11.27964500 43 09.110+02 46 25.90               VET164703
     K23T05Z 1C2023 10 11.29083400 42 49.230+02 57 24.30         18.81GVET164703
     K23T05Z KC2023 10 11.31167400 42 12.517+03 17 45.67         18.53GVET164I52
     K23T05Z KC2023 10 11.31220300 42 11.585+03 18 16.49         18.35GVET164I52
     K23T05Z KC2023 10 11.31272900 42 10.663+03 18 46.98         18.17GVET164I52
     K23T05Z  C2023 10 11.36770500 40 34.850+04 11 13.15         18.0 GVET164H01
     K23T05Z  C2023 10 11.37127100 40 28.883+04 14 34.31         18.1 GVET164H01
     K23T05Z  C2023 10 11.38143600 40 11.886+04 24 06.81         18.5 GVET164H01
     K23T05Z  C2023 10 11.38903000 39 59.291+04 31 12.65         18.1 GVET164H01
     K23T05Z KC2023 10 11.45300500 38 16.858+05 30 03.49         18.36GVET164I52
     K23T05Z KC2023 10 11.45351600 38 16.055+05 30 31.18         18.64GVET164I52
     K23T05Z KC2023 10 11.45402700 38 15.252+05 30 58.93         18.59GVET164I52
     K23T05Z KC2023 10 11.45454100 38 14.428+05 31 26.54         18.45GVET164I52
     K23T05Z KC2023 10 11.70912700 32 20.08 +09 07 20.3          18.7 GVET164900
     K23T05Z KC2023 10 11.71672600 32 09.22 +09 13 20.6          18.6 GVET164900
     K23T05Z KC2023 10 11.72432600 31 58.38 +09 19 17.8          18.4 GVET164900
     K23T05Z 1C2023 10 11.75491100 31 49.890+09 41 49.70               VET164246
     K23T05Z 1C2023 10 11.75515600 31 49.550+09 42 01.00               VET164246
     K23T05Z 1C2023 10 11.75527800 31 49.370+09 42 06.10               VET164246
     K23T05Z 1C2023 10 11.75540100 31 49.210+09 42 12.60               VET164246
     K23T05Z 1C2023 10 11.75552300 31 49.110+09 42 18.70         18.9 GVET164246
     K23T05Z 1C2023 10 11.75564500 31 48.900+09 42 24.30               VET164246
     K23T05Z 1C2023 10 11.75703300 31 47.040+09 43 28.70               VET164246
     K23T05Z 1C2023 10 11.75731200 31 46.640+09 43 42.20               VET164246
     K23T05Z 1C2023 10 11.75751500 31 46.380+09 43 52.00               VET164246
     K23T05Z 1C2023 10 11.75771900 31 46.080+09 44 01.20               VET164246
     K23T05Z 1C2023 10 11.75792200 31 45.850+09 44 10.50               VET164246
     K23T05Z 1C2023 10 11.75832800 31 45.250+09 44 30.10               VET164246
     K23T05Z 1C2023 10 11.75853200 31 44.960+09 44 39.40               VET164246
     K23T05Z KB2023 10 11.76876 00 31 33.64 +09 52 55.7          19.0 VZET164C95
     K23T05Z KB2023 10 11.77626 00 31 23.50 +09 58 42.3          18.9 VZET164C95
     K23T05Z KB2023 10 11.78584 00 31 10.46 +10 06 05.6          19.8 VZET164C95
     K23T05Z KC2023 10 11.78684 00 31 05.12 +10 06 33.1          18.6 GXET164G02
     K23T05Z KC2023 10 11.79139 00 30 58.88 +10 10 02.3          18.6 GXET164G02
     K23T05Z KB2023 10 11.79451 00 30 58.64 +10 12 44.7          19.1 VZET164C95
     K23T05Z KC2023 10 11.79595 00 30 52.60 +10 13 31.9          18.8 GXET164G02
     K23T05Z KC2023 10 11.79774 00 30 53.17 +10 15 16.3                VET164104
     K23T05Z KC2023 10 11.80075 00 30 49.06 +10 17 33.8                VET164104
     K23T05Z KC2023 10 11.80376 00 30 44.89 +10 19 51.6          19.1 GVET164104
     K23T05Z KB2023 10 11.80388 00 30 45.81 +10 19 55.1          19.6 VZET164C95
     K23T05Z KC2023 10 11.80667400 30 43.39 +10 21 58.0          18.9 GXET164958
     K23T05Z KC2023 10 11.81125900 30 37.15 +10 25 28.5          19.0 GXET164958
     K23T05Z KB2023 10 11.81248 00 30 34.15 +10 26 26.4          19.3 VZET164C95
     K23T05Z KC2023 10 11.81579500 30 31.10 +10 28 53.8          18.3 GXET164958
     K23T05Z KB2023 10 11.81799800 30 27.70 +10 30 30.0          18.5 GVET164I93
     K23T05Z KC2023 10 11.81832100 30 23.90 +10 30 45.6          19.1 GXET164595
     K23T05Z KC2023 10 11.81964 00 30 19.25 +10 31 46.3          19.0 VqET164L04
     K23T05Z KB2023 10 11.82026400 30 24.64 +10 32 12.4          18.4 GVET164I93
     K23T05Z KB2023 10 11.82252400 30 21.57 +10 33 54.8          18.4 GVET164I93
     K23T05Z KC2023 10 11.82330600 30 17.07 +10 34 31.2          19.2 GXET164595
     K23T05Z KB2023 10 11.82478600 30 18.52 +10 35 37.5          18.7 GVET164I93
     K23T05Z KC2023 10 11.82675 00 30 13.41 +10 37 17.3          18.9 GXET164K83
     K23T05Z KB2023 10 11.82705000 30 15.45 +10 37 19.3          19.8 GVET164I93
     K23T05Z KC2023 10 11.82854700 30 09.88 +10 38 28.1          18.9 GXET164595
     K23T05Z KC2023 10 11.82942 00 30 09.77 +10 39 17.5          19.0 GXET164K83
     K23T05Z KC2023 10 11.83021 00 30 04.66 +10 39 43.1          19.2 VqET164L04
     K23T05Z KC2023 10 11.83205 00 30 06.14 +10 41 16.6          19.1 GXET164K83
     K23T05Z KC2023 10 11.84175 00 29 48.80 +10 48 20.1          19.1 VqET164L04
     K23T05Z KC2023 10 11.84868 00 29 42.89 +10 54 00.7          18.8 GVET164C82
     K23T05Z KC2023 10 11.85197 00 29 38.28 +10 56 27.3          19.2 GVET164C82
Observer details:
104 San Marcello Pistoiese.  Observers P. Bacci, M. Maestripieri.  Measurer P.
    Bacci.  0.60-m f/4.0 reflector + CCD.
246 Klet Observatory-KLENOT.  Observers M. Tichy, J. Ticha, M. Janda, M.
    Honkova.  Measurer M. Tichy.  1.06-m f/2.7 Reflector + 2048x2048 CCD.
595 Farra d'Isonzo.  Observers G. Panterotto, E. Pettarin.  Measurer E.
    Pettarin.  0.61-m f/4.5 reflector + CCD.
703 Catalina Sky Survey.  Observer G. J. Leonard.  Measurers E. C. Beshore, D.
    Fay, J. B. Fazekas, D. C. Fuls, A. R. Gibbs, A. D. Grauer, H. Groeller, J.
    K. Hogan, R. A. Kowalski, S. M. Larson, G. J. Leonard, D. Rankin, R. L.
    Seaman, F. C. Shelly, K. W. Wierzchos.  0.68-m Schmidt + 10K CCD.
900 Moriyama.  Observer Y. Ikari.  0.26-m f/7.0 reflector + CCD.
958 Observatoire de Dax.  Observers P. Dupouy, J. B. de Vanssay.  Measurer P.
    Dupouy.  0.43-m f/2.7 Reflector + CCD.
C82 Osservatorio Astronomico Nastro Verde, Sorrento.  Observer N. Ruocco.
    0.35-m f/6.3  Schmidt-Cassegrain + CCD.
C95 SATINO Remote Observatory, Haute Provence.  Observer D. Husar.  0.30-m
    f/5.8 reflector + CMO.
G02 KYSUCE Observatory, Kysucke Nove Mesto.  Observer M. Urbanik.  0.40-m
    f/6.8 Corrected Dall-Kirkham + CCD.
H01 Magdalena Ridge Observatory, Socorro.  Observers W. H. Ryan, E. V. Ryan.
    Measurer W. H. Ryan.  2.4-m f/8.9 Ritchey-Chretien + CCD.
I52 Steward Observatory, Mt. Lemmon Station.  Observer J. B. Fazekas.
    Measurers E. C. Beshore, D. Fay, J. B. Fazekas, D. C. Fuls, A. R. Gibbs,
    A. D. Grauer, H. Groeller, J. K. Hogan, R. A. Kowalski, S. M. Larson, G.
    J. Leonard, D. Rankin, R. L. Seaman, F. C. Shelly, K. W. Wierzchos.  1.0-m
    prime focus + CCD.
I93 St Pardon de Conques.  Observer F. Losse.  0.40-m f/3.7 reflector + CMO.
K83 Beppe Forti Astronomical Observatory, Montelupo.  Observers M. Tombelli,
    A. Mazzanti, G. Interrante.  Measurers M. Tombelli, F. Bernardi.  0.40-m
    f/8 Ritchey-Chretien + CCD.
L04 ROASTERR-1 Observatory, Cluj-Napoca.  Observer L. Hudin.  0.3-m f/5
    reflector + CCD.
Orbital elements:
2023 TZ5                                                 Earth MOID = 0.0154 AU
Epoch 2023 Sept. 13.0 TT = JDT 2460200.5                Bell                    
M  21.61111              (2000.0)            P               Q                  
n   0.73189669     Peri.  287.17960     +0.55019112     +0.82898199             
a   1.2194655      Node    17.34930     -0.57907523     +0.46539415             
e   0.3007122      Incl.   19.67381     -0.60163245     +0.31015664             
P   1.35           H   26.68          G   0.15           U   8                  
Residuals in seconds of arc
231011 703  2.4-  5.1+    231011 246  0.6+  0.1+    231011 958  0.6-  0.9+
231011 703  0.4-  1.8+    231011 246  0.0   0.0     231011 C95  0.2+  0.3-
231011 703  0.1-  0.7-    231011 246  0.6+  0.6-    231011 958  0.7+  0.1-
231011 I52  0.3+  0.0     231011 246  0.4+  0.2-    231011 I93  0.2+  0.1+
231011 I52  0.2+  0.0     231011 246  0.6+  0.1+    231011 595  0.2+  0.6-
231011 I52  0.2+  0.2-    231011 246  0.3+  0.2-    231011 L04  0.3-  0.3+
231011 H01  0.1-  0.5+    231011 246  1.0+  0.4-    231011 I93  0.3+  0.3-
231011 H01  0.2+  0.0     231011 246  0.4+  0.2+    231011 I93  0.1+  0.3-
231011 H01  0.0   0.0     231011 246  0.2+  0.0     231011 595  0.3+  0.6-
231011 H01  0.0   0.1+    231011 C95  0.8-  0.7+    231011 I93  0.3+  0.1+
231011 I52  0.1+  0.1-    231011 C95  0.2+  1.1-    231011 K83  0.2+  0.3-
231011 I52  0.0   0.0     231011 C95  0.2+  0.8-    231011 I93  0.2+  0.4-
231011 I52  0.0   0.1+    231011 G02  0.4-  0.4-    231011 595  0.2+  0.2-
231011 I52  0.3-  0.0     231011 G02  0.1-  0.4-    231011 K83  0.6+  0.5-
231011 900  0.4-  0.7-    231011 C95  0.1+  0.7-    231011 L04  0.4-  0.3+
231011 900  0.2+  0.2-    231011 G02  0.2-  0.1-    231011 K83  0.2+  0.2+
231011 900  0.1+  1.4-    231011 104  0.0   0.1-    231011 L04  0.1-  0.2-
231011 246  0.2-  0.3-    231011 104  0.3+  0.5-    231011 C82  0.6+  0.1+
231011 246  0.3-  0.4-    231011 104  0.3-  0.3-    231011 C82  0.6-  0.2+
231011 246  0.5-  1.1-    231011 C95  0.7-  0.5+
231011 246  0.3-  0.3-    231011 958  0.0   0.5-
Ephemeris:
2023 TZ5                 a,e,i = 1.22, 0.30, 20                  q = 0.8528
Date    TT    R. A. (2000) Decl.     Delta      r    Elong.  Phase     V
2023 09 11    10 48 27.1 -49 24 50   0.2222  0.8966    54.6   113.8    27.6
...
2023 09 26    10 23 39.2 -55 06 26   0.1076  0.9506    58.2   116.2    26.3
...
2023 10 04    09 16 09.7 -62 46 51   0.04716 0.9848    69.3   108.2    24.1
...
2023 10 10    01 31 29.6 -24 45 28   0.01574 1.0122   147.9    31.6    19.0
2023 10 11    00 51 14.6 -02 05 34   0.01856 1.0169   170.7     9.1    18.7
2023 10 12    00 26 29.4 +12 44 15   0.02375 1.0216   168.6    11.1    19.3
...
2023 10 18    23 35 00.0 +37 23 58   0.06702 1.0502   141.9    35.8    22.4
...
2023 10 26    23 21 39.7 +42 33 16   0.1299  1.0891   134.3    40.8    24.0
...
2023 11 10    23 25 27.1 +44 07 54   0.2520  1.1624   127.9    42.3    25.7
M. P. C. Staff               (C) Copyright 2023 MPC           M.P.E.C. 2023-T164
    
    
More information about the Iaude
mailing list